• en Belgique
  • Liste des pays
  • À 7 jours
  • Température de l'eau
  • Carte satellitaire
  • Carte météo
  • Widgets météo
  • user-avatar
    Se connecter

    Météo par heure à Indianapolis

    Ce jour, 20 Juin, Mercredi

    Heure Température Précipitation Vent Pression Humidité
    00:00 +25°C° 0,9 mm 2 m/s 738 mmHg 94%
    01:00 +25°C° 0,7 mm 2 m/s 738 mmHg 94%
    02:00 +24°C° 0,7 mm 2 m/s 738 mmHg 95%
    03:00 +24°C° 0,7 mm 3 m/s 738 mmHg 95%
    04:00 +25°C° 0,4 mm 3 m/s 738 mmHg 95%
    05:00 +25°C° 0,4 mm 3 m/s 738 mmHg 94%
    06:00 +25°C° 0,4 mm 3 m/s 738 mmHg 93%
    07:00 +26°C° 1,1 mm 3 m/s 738 mmHg 88%
    08:00 +27°C° 1,1 mm 3 m/s 738 mmHg 84%
    09:00 +29°C° 1,1 mm 3 m/s 738 mmHg 79%
    10:00 +29°C° 0,4 mm 3 m/s 738 mmHg 76%
    11:00 +30°C° 0,4 mm 4 m/s 738 mmHg 73%
    12:00 +32°C° 0,4 mm 4 m/s 738 mmHg 70%
    13:00 +30°C° 1 mm 4 m/s 737 mmHg 72%
    14:00 +30°C° 1 mm 4 m/s 737 mmHg 74%
    15:00 +30°C° 1 mm 4 m/s 737 mmHg 75%
    16:00 +29°C° 0,4 mm 3 m/s 737 mmHg 78%
    17:00 +28°C° 0,4 mm 3 m/s 737 mmHg 81%
    18:00 +28°C° 0,4 mm 2 m/s 737 mmHg 84%
    19:00 +27°C° 0,4 mm 2 m/s 737 mmHg 86%
    20:00 +25°C° 0,4 mm 2 m/s 738 mmHg 89%
    21:00 +24°C° 0,4 mm 2 m/s 738 mmHg 91%
    22:00 +24°C° 0,4 mm 2 m/s 738 mmHg 91%
    23:00 +23°C° 0,4 mm 2 m/s 738 mmHg 91%

    Demain, 21 Juin, Jeudi

    Heure Température Précipitation Vent Pression Humidité
    00:00 +22°C° 0,4 mm 3 m/s 738 mmHg 91%
    01:00 +21°C° 0 mm 3 m/s 738 mmHg 89%
    02:00 +21°C° 0 mm 3 m/s 738 mmHg 87%
    03:00 +20°C° 0 mm 3 m/s 737 mmHg 85%
    04:00 +20°C° 0 mm 3 m/s 738 mmHg 84%
    05:00 +20°C° 0 mm 3 m/s 738 mmHg 82%
    06:00 +20°C° 0 mm 4 m/s 738 mmHg 81%
    07:00 +20°C° 0,5 mm 4 m/s 738 mmHg 80%
    08:00 +21°C° 0,5 mm 4 m/s 738 mmHg 80%
    09:00 +22°C° 0,5 mm 4 m/s 738 mmHg 79%
    10:00 +23°C° 0,6 mm 5 m/s 738 mmHg 78%
    11:00 +25°C° 0,6 mm 5 m/s 738 mmHg 78%
    12:00 +25°C° 0,6 mm 5 m/s 738 mmHg 77%
    13:00 +25°C° 0,5 mm 5 m/s 737 mmHg 78%
    14:00 +25°C° 0,5 mm 5 m/s 737 mmHg 79%
    15:00 +25°C° 0,5 mm 5 m/s 737 mmHg 81%
    16:00 +25°C° 0,4 mm 4 m/s 736 mmHg 83%
    17:00 +23°C° 0,4 mm 4 m/s 736 mmHg 85%
    18:00 +22°C° 0,4 mm 4 m/s 736 mmHg 88%
    19:00 +22°C° 0,5 mm 4 m/s 736 mmHg 88%
    20:00 +21°C° 0,5 mm 4 m/s 737 mmHg 88%
    21:00 +21°C° 0,5 mm 4 m/s 737 mmHg 89%
    22:00 +20°C° 0,6 mm 4 m/s 736 mmHg 90%
    23:00 +20°C° 0,6 mm 4 m/s 736 mmHg 91%

    Après-demain, 22 Juin, Vendredi

    Heure Température Précipitation Vent Pression Humidité
    00:00 +20°C° 0,6 mm 4 m/s 736 mmHg 92%
    01:00 +20°C° 0,6 mm 4 m/s 736 mmHg 92%
    02:00 +20°C° 0,6 mm 5 m/s 735 mmHg 92%
    03:00 +19°C° 0,6 mm 5 m/s 735 mmHg 92%
    04:00 +19°C° 0,6 mm 5 m/s 735 mmHg 92%
    05:00 +19°C° 0,6 mm 5 m/s 735 mmHg 93%
    06:00 +19°C° 0,6 mm 5 m/s 735 mmHg 93%
    07:00 +19°C° 0,3 mm 4 m/s 735 mmHg 93%
    08:00 +20°C° 0,3 mm 4 m/s 735 mmHg 92%
    09:00 +20°C° 0,3 mm 4 m/s 735 mmHg 92%
    10:00 +21°C° 0,4 mm 4 m/s 735 mmHg 90%
    11:00 +22°C° 0,4 mm 3 m/s 734 mmHg 88%
    12:00 +25°C° 0,4 mm 3 m/s 734 mmHg 86%
    13:00 +25°C° 0,6 mm 3 m/s 734 mmHg 85%
    14:00 +26°C° 0,6 mm 3 m/s 734 mmHg 84%
    15:00 +26°C° 0,6 mm 3 m/s 733 mmHg 83%
    16:00 +25°C° 1,2 mm 3 m/s 733 mmHg 85%
    17:00 +25°C° 1,2 mm 2 m/s 733 mmHg 88%
    18:00 +24°C° 1,2 mm 2 m/s 733 mmHg 90%
    19:00 +23°C° 1 mm 2 m/s 732 mmHg 91%
    20:00 +23°C° 1 mm 2 m/s 732 mmHg 93%
    21:00 +21°C° 1 mm 2 m/s 732 mmHg 94%
    22:00 +20°C° 0,3 mm 2 m/s 732 mmHg 95%
    23:00 +21°C° 0,3 mm 1 m/s 732 mmHg 96%

    23 Juin, Samedi

    Heure Température Précipitation Vent Pression Humidité
    00:00 +21°C° 0,3 mm 1 m/s 732 mmHg 97%
    01:00 +20°C° 0,1 mm 2 m/s 732 mmHg 97%
    02:00 +19°C° 0,1 mm 2 m/s 732 mmHg 97%
    03:00 +19°C° 0,1 mm 2 m/s 732 mmHg 98%
    04:00 +19°C° 0 mm 3 m/s 732 mmHg 97%
    05:00 +20°C° 0 mm 3 m/s 733 mmHg 96%
    06:00 +20°C° 0 mm 3 m/s 733 mmHg 95%
    07:00 +20°C° 0,1 mm 4 m/s 733 mmHg 94%
    08:00 +20°C° 0,1 mm 4 m/s 734 mmHg 94%
    09:00 +20°C° 0,1 mm 5 m/s 734 mmHg 93%
    10:00 +21°C° 0 mm 5 m/s 735 mmHg 89%
    11:00 +22°C° 0 mm 5 m/s 735 mmHg 85%
    12:00 +23°C° 0 mm 5 m/s 735 mmHg 81%
    13:00 +25°C° 0,1 mm 5 m/s 735 mmHg 79%
    14:00 +25°C° 0,1 mm 5 m/s 735 mmHg 78%
    15:00 +26°C° 0,1 mm 5 m/s 735 mmHg 76%
    16:00 +25°C° 0,1 mm 4 m/s 736 mmHg 79%
    17:00 +25°C° 0,1 mm 4 m/s 736 mmHg 82%
    18:00 +24°C° 0,1 mm 3 m/s 736 mmHg 84%
    19:00 +22°C° 0 mm 3 m/s 736 mmHg 87%
    20:00 +21°C° 0 mm 3 m/s 737 mmHg 90%
    21:00 +20°C° 0 mm 2 m/s 737 mmHg 93%
    22:00 +20°C° 0 mm 2 m/s 737 mmHg 93%
    23:00 +19°C° 0 mm 2 m/s 737 mmHg 93%

    24 Juin, Dimanche

    Heure Température Précipitation Vent Pression Humidité
    00:00 +20°C° 0 mm 1 m/s 737 mmHg 94%
    01:00 +20°C° 0 mm 1 m/s 737 mmHg 93%
    02:00 +19°C° 0 mm 1 m/s 737 mmHg 93%
    03:00 +19°C° 0 mm 1 m/s 738 mmHg 93%
    04:00 +20°C° 0 mm 1 m/s 738 mmHg 92%
    05:00 +21°C° 0 mm 1 m/s 738 mmHg 91%
    06:00 +21°C° 0 mm 1 m/s 738 mmHg 90%
    07:00 +23°C° 0,1 mm 1 m/s 739 mmHg 85%
    08:00 +24°C° 0,1 mm 2 m/s 739 mmHg 81%
    09:00 +25°C° 0,1 mm 2 m/s 739 mmHg 76%
    10:00 +27°C° 0 mm 2 m/s 739 mmHg 72%
    11:00 +28°C° 0 mm 2 m/s 739 mmHg 68%
    12:00 +29°C° 0 mm 2 m/s 739 mmHg 64%
    13:00 +29°C° 1 mm 2 m/s 739 mmHg 65%
    14:00 +29°C° 1 mm 3 m/s 739 mmHg 66%
    15:00 +29°C° 1 mm 3 m/s 739 mmHg 67%
    16:00 +28°C° 0,4 mm 3 m/s 739 mmHg 71%
    17:00 +26°C° 0,4 mm 3 m/s 739 mmHg 75%
    18:00 +25°C° 0,4 mm 4 m/s 739 mmHg 78%
    19:00 +22°C° 0 mm 3 m/s 740 mmHg 77%
    20:00 +21°C° 0 mm 3 m/s 740 mmHg 76%
    21:00 +19°C° 0 mm 3 m/s 741 mmHg 75%
    22:00 +19°C° 0 mm 3 m/s 741 mmHg 79%
    23:00 +18°C° 0 mm 3 m/s 742 mmHg 83%

    25 Juin, Lundi

    Heure Température Précipitation Vent Pression Humidité
    00:00 +17°C° 0 mm 3 m/s 742 mmHg 87%
    01:00 +17°C° 0 mm 3 m/s 742 mmHg 89%
    02:00 +17°C° 0 mm 4 m/s 743 mmHg 92%
    03:00 +17°C° 0 mm 4 m/s 743 mmHg 95%
    04:00 +17°C° 0 mm 4 m/s 744 mmHg 92%
    05:00 +15°C° 0 mm 5 m/s 745 mmHg 90%
    06:00 +15°C° 0 mm 5 m/s 745 mmHg 88%
    07:00 +16°C° 0 mm 5 m/s 746 mmHg 81%
    08:00 +19°C° 0 mm 5 m/s 746 mmHg 74%
    09:00 +20°C° 0 mm 6 m/s 747 mmHg 66%
    10:00 +21°C° 0 mm 5 m/s 747 mmHg 63%
    11:00 +22°C° 0 mm 5 m/s 747 mmHg 60%
    12:00 +23°C° 0 mm 5 m/s 747 mmHg 57%
    13:00 +23°C° 0 mm 5 m/s 747 mmHg 57%
    14:00 +23°C° 0 mm 4 m/s 747 mmHg 58%
    15:00 +25°C° 0 mm 4 m/s 747 mmHg 58%
    16:00 +24°C° 0 mm 3 m/s 747 mmHg 63%
    17:00 +22°C° 0 mm 3 m/s 747 mmHg 67%
    18:00 +21°C° 0 mm 3 m/s 747 mmHg 72%
    19:00 +20°C° 0 mm 3 m/s 747 mmHg 73%
    20:00 +19°C° 0 mm 2 m/s 747 mmHg 75%
    21:00 +17°C° 0 mm 2 m/s 748 mmHg 76%
    22:00 +17°C° 0 mm 2 m/s 747 mmHg 77%
    23:00 +16°C° 0 mm 3 m/s 747 mmHg 77%
    Voir plus